When you browse on this site, cookies collect data to enhance your experience and personalize the content and advertising you see.
Visit our Privacy Policy to learn more. By continuing to use the site, you agree to this use of cookies and data.
  • In Switzerland
  • List of Countries
  • For 7 days
  • Water Temperature
  • Weather Map
  • Weather Widgets
  • user-avatar
    Login

    Hourly Weather Toporovo

    Today, 24 August, Saturday

    Time Temperature Precipitation Wind Pressure Humidity
    00:00 +13°C° 0 mm 1 mps 749 mmHg 89%
    01:00 +13°C° 0 mm 1 mps 749 mmHg 89%
    02:00 +12°C° 0 mm 1 mps 749 mmHg 89%
    03:00 +12°C° 0 mm 1 mps 749 mmHg 90%
    04:00 +12°C° 0 mm 1 mps 749 mmHg 91%
    05:00 +12°C° 0 mm 1 mps 749 mmHg 92%
    06:00 +14°C° 0 mm 2 mps 749 mmHg 86%
    07:00 +15°C° 0 mm 2 mps 749 mmHg 80%
    08:00 +17°C° 0 mm 2 mps 749 mmHg 75%
    09:00 +19°C° 0 mm 3 mps 749 mmHg 70%
    10:00 +20°C° 0 mm 3 mps 748 mmHg 65%
    11:00 +21°C° 0 mm 3 mps 748 mmHg 60%
    12:00 +22°C° 0 mm 4 mps 748 mmHg 59%
    13:00 +22°C° 0 mm 4 mps 748 mmHg 58%
    14:00 +23°C° 0 mm 4 mps 748 mmHg 57%
    15:00 +22°C° 0 mm 3 mps 747 mmHg 61%
    16:00 +22°C° 0 mm 3 mps 747 mmHg 65%
    17:00 +21°C° 0 mm 2 mps 747 mmHg 69%
    18:00 +20°C° 0 mm 2 mps 747 mmHg 76%
    19:00 +18°C° 0 mm 2 mps 747 mmHg 82%
    20:00 +16°C° 0 mm 2 mps 747 mmHg 89%
    21:00 +16°C° 0 mm 2 mps 747 mmHg 91%
    22:00 +15°C° 0 mm 2 mps 747 mmHg 93%
    23:00 +15°C° 0 mm 1 mps 747 mmHg 95%

    Tomorrow, 25 August, Sunday

    Time Temperature Precipitation Wind Pressure Humidity
    00:00 +14°C° 0 mm 1 mps 747 mmHg 95%
    01:00 +14°C° 0 mm 1 mps 748 mmHg 95%
    02:00 +13°C° 0 mm 1 mps 748 mmHg 95%
    03:00 +13°C° 0 mm 1 mps 748 mmHg 95%
    04:00 +13°C° 0 mm 1 mps 748 mmHg 95%
    05:00 +12°C° 0 mm 1 mps 748 mmHg 95%
    06:00 +14°C° 0 mm 1 mps 749 mmHg 90%
    07:00 +15°C° 0 mm 1 mps 749 mmHg 84%
    08:00 +17°C° 0 mm 2 mps 749 mmHg 78%
    09:00 +18°C° 0 mm 2 mps 749 mmHg 71%
    10:00 +19°C° 0 mm 2 mps 749 mmHg 63%
    11:00 +21°C° 0 mm 2 mps 750 mmHg 56%
    12:00 +21°C° 0 mm 2 mps 750 mmHg 54%
    13:00 +21°C° 0 mm 2 mps 750 mmHg 52%
    14:00 +23°C° 0 mm 2 mps 750 mmHg 51%
    15:00 +21°C° 0 mm 2 mps 750 mmHg 56%
    16:00 +22°C° 0 mm 1 mps 749 mmHg 61%
    17:00 +22°C° 0 mm 1 mps 749 mmHg 66%
    18:00 +19°C° 0 mm 1 mps 749 mmHg 72%
    19:00 +16°C° 0 mm 1 mps 750 mmHg 78%
    20:00 +14°C° 0 mm 1 mps 750 mmHg 84%
    21:00 +14°C° 0 mm 1 mps 750 mmHg 87%
    22:00 +13°C° 0 mm 1 mps 750 mmHg 89%
    23:00 +13°C° 0 mm 1 mps 750 mmHg 92%

    Day after tomorrow, 26 August, Monday

    Time Temperature Precipitation Wind Pressure Humidity
    00:00 +12°C° 0 mm 1 mps 750 mmHg 93%
    01:00 +12°C° 0 mm 1 mps 750 mmHg 93%
    02:00 +12°C° 0 mm 1 mps 750 mmHg 94%
    03:00 +12°C° 0 mm 1 mps 750 mmHg 94%
    04:00 +11°C° 0 mm 1 mps 750 mmHg 94%
    05:00 +10°C° 0 mm 0 mps 750 mmHg 94%
    06:00 +12°C° 0 mm 0 mps 750 mmHg 88%
    07:00 +14°C° 0 mm 0 mps 750 mmHg 82%
    08:00 +16°C° 0 mm 0 mps 750 mmHg 76%
    09:00 +20°C° 0 mm 1 mps 750 mmHg 70%
    10:00 +21°C° 0 mm 1 mps 750 mmHg 64%
    11:00 +23°C° 0 mm 1 mps 750 mmHg 58%
    12:00 +23°C° 0 mm 1 mps 750 mmHg 57%
    13:00 +23°C° 0 mm 1 mps 749 mmHg 55%
    14:00 +23°C° 0 mm 2 mps 749 mmHg 54%
    15:00 +23°C° 0 mm 2 mps 749 mmHg 59%
    16:00 +21°C° 0 mm 2 mps 748 mmHg 64%
    17:00 +22°C° 0 mm 1 mps 748 mmHg 68%
    18:00 +20°C° 0 mm 1 mps 747 mmHg 74%
    19:00 +18°C° 0 mm 1 mps 747 mmHg 80%
    20:00 +15°C° 0 mm 1 mps 747 mmHg 86%
    21:00 +15°C° 0 mm 1 mps 747 mmHg 86%
    22:00 +14°C° 0 mm 1 mps 747 mmHg 86%
    23:00 +14°C° 0 mm 1 mps 747 mmHg 86%

    27 August, Tuesday

    Time Temperature Precipitation Wind Pressure Humidity
    00:00 +14°C° 0 mm 2 mps 747 mmHg 88%
    01:00 +14°C° 0 mm 2 mps 746 mmHg 89%
    02:00 +14°C° 0 mm 2 mps 746 mmHg 90%
    03:00 +14°C° 0 mm 2 mps 746 mmHg 92%
    04:00 +14°C° 0 mm 2 mps 746 mmHg 94%
    05:00 +14°C° 0 mm 2 mps 746 mmHg 97%
    06:00 +15°C° 0 mm 2 mps 745 mmHg 92%
    07:00 +16°C° 0 mm 3 mps 745 mmHg 88%
    08:00 +18°C° 0 mm 3 mps 745 mmHg 84%
    09:00 +19°C° 0 mm 3 mps 745 mmHg 77%
    10:00 +21°C° 0 mm 4 mps 745 mmHg 70%
    11:00 +22°C° 0 mm 4 mps 745 mmHg 63%
    12:00 +22°C° 0 mm 4 mps 745 mmHg 62%
    13:00 +22°C° 0 mm 4 mps 745 mmHg 61%
    14:00 +22°C° 0 mm 5 mps 745 mmHg 59%
    15:00 +22°C° 0 mm 4 mps 745 mmHg 61%
    16:00 +21°C° 0 mm 4 mps 745 mmHg 62%
    17:00 +20°C° 0 mm 3 mps 745 mmHg 64%
    18:00 +18°C° 0 mm 3 mps 745 mmHg 68%
    19:00 +16°C° 0 mm 3 mps 746 mmHg 72%
    20:00 +13°C° 0 mm 3 mps 746 mmHg 77%
    21:00 +13°C° 0 mm 3 mps 746 mmHg 81%
    22:00 +13°C° 0 mm 2 mps 747 mmHg 85%
    23:00 +12°C° 0 mm 2 mps 747 mmHg 89%

    28 August, Wednesday

    Time Temperature Precipitation Wind Pressure Humidity
    00:00 +12°C° 0 mm 2 mps 747 mmHg 91%
    01:00 +10°C° 0 mm 2 mps 747 mmHg 93%
    02:00 +10°C° 0 mm 1 mps 747 mmHg 96%
    03:00 +10°C° 0 mm 1 mps 748 mmHg 95%
    04:00 +9°C° 0 mm 1 mps 748 mmHg 95%
    05:00 +9°C° 0 mm 1 mps 748 mmHg 95%
    06:00 +10°C° 0 mm 1 mps 749 mmHg 86%
    07:00 +12°C° 0 mm 2 mps 749 mmHg 77%
    08:00 +14°C° 0 mm 2 mps 749 mmHg 68%
    09:00 +15°C° 0 mm 2 mps 749 mmHg 61%
    10:00 +16°C° 0 mm 3 mps 749 mmHg 55%
    11:00 +17°C° 0 mm 3 mps 749 mmHg 48%
    12:00 +17°C° 0 mm 3 mps 749 mmHg 47%
    13:00 +18°C° 0 mm 3 mps 749 mmHg 46%
    14:00 +18°C° 0 mm 3 mps 749 mmHg 45%
    15:00 +18°C° 0 mm 3 mps 748 mmHg 50%
    16:00 +18°C° 0 mm 2 mps 748 mmHg 55%
    17:00 +17°C° 0 mm 2 mps 748 mmHg 59%
    18:00 +15°C° 0 mm 2 mps 748 mmHg 64%
    19:00 +13°C° 0 mm 1 mps 748 mmHg 68%
    20:00 +11°C° 0 mm 1 mps 748 mmHg 73%
    21:00 +11°C° 0 mm 1 mps 749 mmHg 73%
    22:00 +10°C° 0 mm 1 mps 749 mmHg 73%
    23:00 +9°C° 0 mm 1 mps 749 mmHg 73%

    29 August, Thursday

    Time Temperature Precipitation Wind Pressure Humidity
    00:00 +9°C° 0 mm 1 mps 749 mmHg 74%
    01:00 +8°C° 0 mm 1 mps 749 mmHg 74%
    02:00 +8°C° 0 mm 1 mps 749 mmHg 75%
    03:00 +7°C° 0 mm 1 mps 749 mmHg 75%
    04:00 +6°C° 0 mm 0 mps 749 mmHg 75%
    05:00 +6°C° 0 mm 0 mps 749 mmHg 75%
    06:00 +8°C° 0 mm 0 mps 749 mmHg 69%
    07:00 +10°C° 0 mm 0 mps 749 mmHg 63%
    08:00 +13°C° 0 mm 1 mps 749 mmHg 57%
    09:00 +15°C° 0 mm 1 mps 749 mmHg 53%
    10:00 +18°C° 0 mm 1 mps 749 mmHg 49%
    11:00 +19°C° 0 mm 1 mps 749 mmHg 45%
    12:00 +20°C° 0 mm 1 mps 749 mmHg 46%
    13:00 +20°C° 0 mm 1 mps 748 mmHg 48%
    14:00 +21°C° 0 mm 1 mps 748 mmHg 49%
    15:00 +21°C° 0 mm 1 mps 748 mmHg 55%
    16:00 +20°C° 0 mm 1 mps 748 mmHg 61%
    17:00 +20°C° 0 mm 1 mps 748 mmHg 68%
    18:00 +18°C° 0 mm 1 mps 748 mmHg 73%
    19:00 +15°C° 0 mm 1 mps 748 mmHg 79%
    20:00 +13°C° 0 mm 1 mps 748 mmHg 85%
    21:00 +13°C° 0 mm 1 mps 748 mmHg 87%
    22:00 +13°C° 0 mm 1 mps 748 mmHg 88%
    23:00 +12°C° 0 mm 1 mps 748 mmHg 89%
    Show more